Flag for United Kingdom Weather past 2 weeks in Plymouth, England, United Kingdom

Now
54 °F

Clear.


Feels Like: 54 °F
Forecast: 46 / 65 °F
Wind: No wind

Location: Exeter Airport

Current Time: Sep 21, 2014 at 9:47:32 PM

Latest Report: Sep 21, 2014 at 9:20 PM


Visibility: 10 mi

Pressure: 30.30 "Hg

Humidity: 82%

Dew point: 48 °F

Location of PlymouthLocation

Historic Weather in Plymouth — Graph

°F

Plymouth temperature yesterday

Maximum temperature yesterday: 66 °F (at 12:20 PM)
Minimum temperature yesterday: 55 °F (at 2:50 AM)
Average temperature yesterday: 62 °F

Past Weeks' High & Low Weather Summary

 TemperatureHumidityPressure
High73 °F (Sep 16, 1:50 PM)100% (Sep 7, 7:50 AM)30.30 "Hg (Sep 7, 7:50 AM)
Low46 °F (Sep 8, 7:20 AM)49% (Sep 21, 3:20 PM)29.74 "Hg (Sep 18, 6:20 AM)
Average61 °F81%30.04 "Hg
* Reported Sep 6 8:20 PM — Sep 21 8:50 PM, Plymouth, Weather by CustomWeather, © 2014

Note: Actual official high and low records may vary slightly from our data, if they occured in-between our weather recording intervals... More about our weather records

Advertising

Plymouth weather history for previous 24 hours

 ConditionsComfort  
Time TempWeatherWind HumidityBarometerVisibility
8:50 PM
Sep 21
55 °FClear.No wind77%30.30 "Hg10 mi
8:20 PM57 °FClear.2 mph77%30.30 "Hg10 mi
7:20 PM59 °FSunny.3 mph68%30.30 "Hg10 mi
6:50 PM61 °FSunny.5 mph68%30.27 "Hg10 mi
6:20 PM63 °FSunny.7 mph59%30.27 "Hg10 mi
5:50 PM63 °FPassing clouds.7 mph64%30.27 "HgN/A
5:20 PM63 °FSunny.8 mph59%30.27 "Hg10 mi
4:50 PM63 °FScattered clouds.9 mph59%30.27 "HgN/A
4:20 PM66 °FSunny.10 mph52%30.27 "Hg10 mi
3:20 PM66 °FPassing clouds.12 mph49%30.27 "HgN/A
2:50 PM64 °FPassing clouds.9 mph52%30.27 "HgN/A
2:20 PM66 °FPassing clouds.8 mph52%30.27 "HgN/A
1:50 PM64 °FPassing clouds.10 mph56%30.27 "HgN/A
1:20 PM64 °FPassing clouds.9 mph56%30.27 "HgN/A
12:50 PM64 °FSunny.12 mph56%30.27 "Hg10 mi
12:20 PM64 °FPassing clouds.9 mph56%30.27 "HgN/A
11:50 AM63 °FPassing clouds.9 mph59%30.27 "HgN/A
11:20 AM61 °FPassing clouds.8 mph68%30.27 "HgN/A
10:20 AM59 °FPassing clouds.8 mph77%30.24 "HgN/A
9:50 AM57 °FPassing clouds.9 mph77%30.24 "HgN/A
9:20 AM57 °FPassing clouds.10 mph77%30.24 "HgN/A
8:50 AM55 °FPassing clouds.10 mph88%30.24 "HgN/A
8:20 AM57 °FPassing clouds.12 mph82%30.21 "HgN/A
7:50 AM57 °FPassing clouds.7 mph88%30.21 "HgN/A
7:20 AM57 °FPassing clouds.5 mph88%30.21 "HgN/A
6:50 AM59 °FPassing clouds.7 mph88%30.18 "Hg4 mi
6:20 AM59 °FPassing clouds.6 mph88%30.18 "HgN/A
2:20 AM61 °FPassing clouds.2 mph88%30.15 "Hg5 mi
1:50 AM61 °FPassing clouds.3 mph88%30.15 "Hg5 mi
12:20 AM61 °FPassing clouds.3 mph94%30.12 "Hg5 mi
11:50 PM
Sep 20
63 °FPassing clouds.3 mph88%30.12 "Hg5 mi
11:20 PM63 °FPassing clouds.3 mph88%30.12 "Hg5 mi
10:50 PM63 °FPassing clouds.2 mph88%30.12 "Hg5 mi
10:20 PM63 °FPassing clouds.3 mph88%30.09 "Hg5 mi
9:20 PM63 °FPassing clouds.2 mph88%30.09 "Hg5 mi
Weather by CustomWeather, © 2014

See weather overviewHow to use our weather pages